TimePST,TemperatureF,Dew PointF,Humidity,Sea Level PressureIn,VisibilityMPH,Wind Direction,Wind SpeedMPH,Gust SpeedMPH,PrecipitationIn,Events,Conditions,WindDirDegrees,DateUTC
12:53 AM,30.0,24.1,79,30.41,10.0,Calm,Calm,-,N/A,,Clear,0,2013-01-15 08:53:00
1:53 AM,27.0,24.1,89,30.45,10.0,Calm,Calm,-,N/A,,Clear,0,2013-01-15 09:53:00
2:53 AM,27.0,24.1,89,30.46,10.0,Calm,Calm,-,N/A,,Clear,0,2013-01-15 10:53:00
3:53 AM,26.1,24.1,92,30.46,10.0,Calm,Calm,-,N/A,,Clear,0,2013-01-15 11:53:00
4:53 AM,25.0,23.0,92,30.46,10.0,Calm,Calm,-,N/A,,Clear,0,2013-01-15 12:53:00
5:53 AM,27.0,24.1,89,30.48,10.0,Calm,Calm,-,N/A,,Clear,0,2013-01-15 13:53:00
6:53 AM,24.1,23.0,96,30.49,10.0,Calm,Calm,-,N/A,,Clear,0,2013-01-15 14:53:00
7:53 AM,28.9,24.1,82,30.51,10.0,Calm,Calm,-,N/A,,Clear,0,2013-01-15 15:53:00
8:53 AM,35.1,28.0,76,30.53,10.0,Calm,Calm,-,N/A,,Clear,0,2013-01-15 16:53:00
9:53 AM,39.9,28.9,65,30.53,10.0,NE,4.6,-,N/A,,Clear,40,2013-01-15 17:53:00
10:53 AM,45.0,26.1,48,30.52,10.0,Variable,3.5,-,N/A,,Clear,0,2013-01-15 18:53:00
11:53 AM,46.0,26.1,46,30.50,10.0,Variable,3.5,-,N/A,,Clear,0,2013-01-15 19:53:00
12:53 PM,48.9,26.1,41,30.48,10.0,Variable,4.6,-,N/A,,Clear,0,2013-01-15 20:53:00
1:53 PM,50.0,27.0,41,30.46,10.0,Variable,4.6,-,N/A,,Clear,0,2013-01-15 21:53:00
2:53 PM,51.1,27.0,39,30.45,10.0,ENE,4.6,-,N/A,,Clear,70,2013-01-15 22:53:00
3:53 PM,48.9,30.0,48,30.46,10.0,ESE,5.8,-,N/A,,Clear,110,2013-01-15 23:53:00
4:53 PM,46.0,30.0,54,30.46,10.0,ESE,3.5,-,N/A,,Clear,120,2013-01-16 00:53:00
5:53 PM,39.0,30.0,70,30.46,10.0,WNW,3.5,-,N/A,,Clear,300,2013-01-16 01:53:00
6:53 PM,35.1,28.9,78,30.46,10.0,Calm,Calm,-,N/A,,Clear,0,2013-01-16 02:53:00
7:53 PM,32.0,28.9,88,30.46,8.0,Calm,Calm,-,N/A,,Clear,0,2013-01-16 03:53:00
8:53 PM,32.0,28.9,88,30.46,8.0,Calm,Calm,-,N/A,,Clear,0,2013-01-16 04:53:00
9:53 PM,32.0,28.9,88,30.46,8.0,Calm,Calm,-,N/A,,Clear,0,2013-01-16 05:53:00
10:53 PM,32.0,28.0,85,30.46,10.0,Calm,Calm,-,N/A,,Clear,0,2013-01-16 06:53:00
11:53 PM,28.9,27.0,92,30.47,10.0,Calm,Calm,-,N/A,,Clear,0,2013-01-16 07:53:00